This is the latest recevied weather packets stored in our database for station/object DB0RES-5. If no packets are shown the sender has not sent any weather packets the latest 10 day(s).
| Time | Temp. | Humidity | Pressure | Rain* | Wind** | Luminosity | Snow |
|---|---|---|---|---|---|---|---|
| 1777602958 | 10.56° C | 59% | 1027.9 hPa | 0 mm | - | - | - |
| 1777602356 | 10.56° C | 59% | 1028 hPa | 0 mm | - | - | - |
| 1777601151 | 11.11° C | 58% | 1027.9 hPa | 0 mm | - | - | - |
| 1777586146 | 13.89° C | 48% | 1028.1 hPa | 0 mm | - | - | - |
| 1777583133 | 14.44° C | 46% | 1028.1 hPa | 0 mm | - | - | - |
| 1777582530 | 15° C | 45% | 1028.1 hPa | 0 mm | - | - | - |
| 1777581928 | 15° C | 44% | 1028.2 hPa | 0 mm | - | - | - |
| 1777581325 | 15° C | 44% | 1028.2 hPa | 0 mm | - | - | - |
| 1777580120 | 15.56° C | 43% | 1027.9 hPa | 0 mm | - | - | - |
| 1777579517 | 15.56° C | 42% | 1028 hPa | 0 mm | - | - | - |
| 1777578915 | 15.56° C | 41% | 1028 hPa | 0 mm | - | - | - |
| 1777578372 | 16.11° C | 41% | 1027.9 hPa | 0 mm | - | - | - |
| 1777577770 | 16.11° C | 40% | 1027.8 hPa | 0 mm | - | - | - |
| 1777577167 | 16.11° C | 39% | 1027.7 hPa | 0 mm | - | - | - |
| 1777575962 | 16.67° C | 38% | 1027.4 hPa | 0 mm | - | - | - |
| 1777575359 | 17.22° C | 37% | 1027.4 hPa | 0 mm | - | - | - |
| 1777574757 | 17.22° C | 36% | 1027.3 hPa | 0 mm | - | - | - |
| 1777574154 | 17.78° C | 34% | 1027.3 hPa | 0 mm | - | - | - |
| 1777573552 | 17.78° C | 34% | 1027.3 hPa | 0 mm | - | - | - |
| 1777572346 | 18.33° C | 32% | 1027.3 hPa | 0 mm | - | - | - |
| 1777571141 | 18.89° C | 30% | 1027.3 hPa | 0 mm | - | - | - |
| 1777570538 | 18.89° C | 30% | 1027.1 hPa | 0 mm | - | - | - |
| 1777569936 | 18.89° C | 29% | 1027.1 hPa | 0 mm | - | - | - |
| 1777569333 | 19.44° C | 30% | 1027.1 hPa | 0 mm | - | - | - |
| 1777566923 | 19.44° C | 28% | 1027.4 hPa | 0 mm | - | - | - |
* Rain latest hour (hover to see other rain measurements)
** Current wind speed in m/s (hover to see current wind gust speed)